DELTA 1 DEB, 9977

Orbit data source: Space-Track

DELTA 1 DEB, 9977 is space debris in SSO originally from a launch on Tue, 06 Nov 1973 UTC launched from the Air Force Western Test Range (AFWTR). Debris objects in space refer to the collection of defunct objects orbiting the Earth. Examples of debris include non-operational satellites, rocket bodies, and fragments generated from explosions, collisions, or faulty payload assembly.

Loading next visibility...
Identifier
9977, 1973-086GG
Orbit
SSO
Country
Flag of USUS
Related business
Manufacturer
Unknown
Mission
Spacecraft
Bus & Motor
Unknown
Mass
Unknown
Launch date (UTC)
1973-11-06 (53 years ago)
Launch vehicle
Unknown
Launch site
Air Force Western Test Range (AFWTR)
Object type
Payload
Rocket body
Debris
Shape & HBR
Unknown shape, 0.1 m
Radar Cross Section
Medium (>0.1 m² and <1 m²)

Expand to show TLE details & history
Last TLE update: 1 day ago

TLE from 1 day ago
0 DELTA 1 DEB
1 09977U 73086GG  26208.72511527  .00000049  00000-0  57885-3 0  9993
2 09977 101.8864 295.9318 0076970 110.2536  43.7815 12.54383413328630
Epoch: 2026-07-27T17:24Z
TLE epoch observation values (Epoch: 2026-07-27T17:24:09.959Z)
Latitude
24.7979°
Longitude
-84.96123°
Altitude
1,405.65 km
Speed
7.179 km/s
True Right ascension
08h 05m 56s
True Declination
24° 40' 41"
Sunlit
Object was in daylight at epoch
Visualization orbit readout
Latitude
Unknown
Longitude
Unknown
Altitude
Unknown
Speed
Unknown
Apparent Right ascension
Unknown
Apparent Declination
Unknown
Sunlit
N/A
Visualization observer readout
Local Sidereal Time
08:43:10
Azimuth
Unknown
Elevation
Unknown
Doppler factor
Unknown
Orbital elements
Apogee altitude
1,503.968 km
Perigee altitude
1,383.557 km
Semi-major axis
7,821.9 km
Eccentricity
0.0077
Inclination
101.8864°
RAAN
295.9318°
Arg. of periapsis
110.2536°
True anomaly
44.39603°
Mean anomaly
43.7815°
Eccentric anomaly
44.08834°
Mean motion
3.13744 °/min
Orbital period
114.74 mins
BSTAR
0.00057885
Loading maneuver chart data...
Computing Atmospheric mass density...
Loading historical data...
Loading historical data...
Loading historical data...
Loading historical data...
Loading historical data...
Loading historical data...
Loading historical data...

Documentation

Showing up to 5 results
|